Hourly Data Report for November 04, 2006

TORONTO CITY
ONTARIO

43°40'00.000" N
79°24'00.000" W
112.50 m
6158355
71508
XTO

Download Data

Hourly Data (November 2006)
Hourly Data Report for November 4, 2006
TIME
LST
Temp Definition
°C
Dew Point Definition
°C
Rel Hum Definition
%
Precip. Amount Definition
mm

Wind Dir Definition
10's deg

Wind Spd Definition
km/h
Visibility Definition
km
Stn Press Definition
kPa
Hmdx Definition


Wind Chill Definition


Weather Definition


00:00 0.5 -3.8 73   LegendMM LegendMM   101.54     LegendNANA
01:00 0.4 -3.8 73   LegendMM LegendMM   101.55     LegendNANA
02:00 0.6 -3.8 72   LegendMM LegendMM   101.57     LegendNANA
03:00 0.7 -3.8 72   LegendMM LegendMM   101.57     LegendNANA
04:00 0.5 -3.7 73   LegendMM LegendMM   101.61     LegendNANA
05:00 0.8 -3.5 73   LegendMM LegendMM   101.65     LegendNANA
06:00 0.8 -3.6 72   LegendMM LegendMM   101.71     LegendNANA
07:00 0.6 -3.7 73   LegendMM LegendMM   101.76     LegendNANA
08:00 0.5 -3.9 72   LegendMM LegendMM   101.82     LegendNANA
09:00 1.5 -3.8 68   LegendMM LegendMM   101.85     LegendNANA
10:00 2.8 -3.3 64   LegendMM LegendMM   101.82     LegendNANA
11:00 3.7 -4.3 56   LegendMM LegendMM   101.82     LegendNANA
12:00 4.3 -4.9 51   LegendMM LegendMM   101.78     LegendNANA
13:00 4.8 -4.7 50   LegendMM LegendMM   101.73     LegendNANA
14:00 4.9 -3.5 54   LegendMM LegendMM   101.66     LegendNANA
15:00 5.4 -4.4 49   LegendMM LegendMM   101.66     LegendNANA
16:00 5.2 -3.9 52   LegendMM LegendMM   101.73     LegendNANA
17:00 4.7 -3.9 54   LegendMM LegendMM   101.75     LegendNANA
18:00 4.9 -3.2 56   LegendMM LegendMM   101.77     LegendNANA
19:00 4.9 -3.1 56   LegendMM LegendMM   101.78     LegendNANA
20:00 4.7 -4.0 53   LegendMM LegendMM   101.77     LegendNANA
21:00 4.5 -2.3 61   LegendMM LegendMM   101.76     LegendNANA
22:00 4.6 -1.0 67   LegendMM LegendMM   101.76     LegendNANA
23:00 4.7 -0.2 71   LegendMM LegendMM   101.74     LegendNANA

Notes on Data Quality.

Legend

  • E = Estimated
  • M = Missing
  • NA = Not Available*
  • [empty] = Indicates an unobserved value
Date modified: